Weather History for Silver Bay, MN

Change the Weather History Date:

Wednesday, January 23, 2013

  Actual Average Record
Temperature  
Mean Temperature -4 °F -  
Max Temperature 5 °F 18 °F 32 °F (2001)
Min Temperature -14 °F 0 °F -27 °F (2011)
Degree Days  
Heating Degree Days 70    
Moisture  
Dew Point -18 °F    
Average Humidity 58    
Maximum Humidity 71    
Minimum Humidity 36    
Precipitation  
Precipitation 0.00 in - - ()
Sea Level Pressure  
Sea Level Pressure 30.17 in    
Wind  
Wind Speed 4 mph (NW)    
Max Wind Speed 15 mph    
Max Gust Speed 24 mph    
Visibility 9 miles    
Events Snow    
Averages and records for this station are not official NWS values.
T = Trace of Precipitation, MM = Missing Value Source: NWS Daily Summary

Daily Weather History Graph

Daily Weather History Graph

Search for Another Location

Airport:

Trip Planner

Search our weather history database for the weather conditions in past years. The results will help you decide how hot, cold, wet, or windy it might be!

Date:

Astronomy

Jan. 23, 2013 Rise Set
Actual Time 7:41 AM CST 4:54 PM CST
Civil Twilight 7:07 AM CST 5:28 PM CST
Nautical Twilight 6:30 AM CST 6:05 PM CST
Astronomical Twilight 5:53 AM CST 6:41 PM CST
Moon 2:01 PM CST (1/23) 4:56 AM CST (1/23)
Length of Visible Light 10h 20m
Length of Day
9h 13m
Waxing Gibbous, 89% of the Moon is Illuminated
Jan 23
Waxing Gibbous
Jan 26
Full
Feb 3
Last Quarter
Feb 10
New
Feb 17
First Quarter

Hourly Weather History & Observations

Time (CST) Temp. Windchill Dew Point Humidity Pressure Visibility Wind Dir Wind Speed Gust Speed Precip Events Conditions
12:13 AM -7.6 °F -16.5 °F -16.6 °F 65% 30.08 in 10.0 mi West 3.5 mph - N/A   Clear
12:33 AM -7.6 °F - -16.6 °F 65% 30.08 in 10.0 mi Calm Calm - N/A   Clear
12:53 AM -7.6 °F -18.8 °F -16.6 °F 65% 30.08 in 10.0 mi West 4.6 mph - N/A   Clear
1:13 AM -7.6 °F - -16.6 °F 65% 30.07 in 10.0 mi Calm Calm - N/A   Mostly Cloudy
1:33 AM -7.6 °F -16.5 °F -16.6 °F 65% 30.07 in 10.0 mi WNW 3.5 mph - N/A   Overcast
1:53 AM -7.6 °F -18.8 °F -16.6 °F 65% 30.07 in 10.0 mi West 4.6 mph - N/A   Overcast
2:13 AM -7.6 °F -18.8 °F -16.6 °F 65% 30.07 in 10.0 mi West 4.6 mph - N/A   Overcast
2:33 AM -7.6 °F -18.8 °F -16.6 °F 65% 30.07 in 10.0 mi WNW 4.6 mph - N/A   Overcast
2:54 AM -7.6 °F -16.5 °F -16.6 °F 65% 30.07 in 10.0 mi NW 3.5 mph - N/A   Overcast
3:13 AM -7.6 °F - -16.6 °F 65% 30.07 in 10.0 mi Calm Calm - N/A   Overcast
3:33 AM -7.6 °F -18.8 °F -16.6 °F 65% 30.06 in 10.0 mi West 4.6 mph - N/A   Overcast
3:53 AM -7.6 °F -18.8 °F -16.6 °F 65% 30.05 in 10.0 mi West 4.6 mph - N/A   Overcast
4:13 AM -7.6 °F -16.5 °F -18.4 °F 59% 30.05 in 10.0 mi WNW 3.5 mph - N/A   Overcast
4:33 AM -7.6 °F - -16.6 °F 65% 30.04 in 10.0 mi Calm Calm - N/A   Mostly Cloudy
4:53 AM -7.6 °F - -16.6 °F 65% 30.04 in 10.0 mi Calm Calm - N/A   Overcast
5:13 AM -7.6 °F - -16.6 °F 65% 30.03 in 10.0 mi Calm Calm - N/A   Overcast
5:33 AM -7.6 °F -16.5 °F -14.8 °F 71% 30.02 in 10.0 mi WSW 3.5 mph - N/A   Overcast
5:53 AM -5.8 °F -14.5 °F -14.8 °F 65% 30.02 in 7.0 mi WSW 3.5 mph - N/A   Scattered Clouds
6:14 AM -5.8 °F - -14.8 °F 65% 30.02 in 7.0 mi Calm Calm - N/A   Scattered Clouds
6:33 AM -5.8 °F - -14.8 °F 65% 30.02 in 10.0 mi Calm Calm - N/A   Mostly Cloudy
6:53 AM -5.8 °F - -14.8 °F 65% 30.02 in 10.0 mi Calm Calm - N/A   Overcast
7:13 AM -5.8 °F - -14.8 °F 65% 30.01 in 7.0 mi Calm Calm - N/A   Overcast
7:33 AM -7.6 °F - -14.8 °F 71% 30.01 in 5.0 mi Calm Calm - N/A Snow Light Snow
7:53 AM -7.6 °F - -14.8 °F 71% 30.01 in 5.0 mi Calm Calm - N/A   Haze
8:13 AM -7.6 °F - -16.6 °F 65% 30.01 in 7.0 mi Calm Calm - N/A   Scattered Clouds
8:33 AM -7.6 °F - -14.8 °F 71% 30.01 in 7.0 mi Calm Calm - N/A   Mostly Cloudy
8:53 AM -5.8 °F - -14.8 °F 65% 30.01 in 10.0 mi Calm Calm - N/A   Overcast
9:14 AM -5.8 °F - -14.8 °F 65% 30.01 in 10.0 mi Calm Calm - N/A   Scattered Clouds
9:34 AM -4.0 °F - -13.0 °F 65% 30.01 in 7.0 mi Calm Calm - N/A Snow Light Snow
9:53 AM -2.2 °F - -11.2 °F 66% 30.01 in 10.0 mi Calm Calm - N/A   Scattered Clouds
10:13 AM -0.4 °F -10.4 °F -9.4 °F 66% 30.01 in 7.0 mi NW 4.6 mph - N/A   Clear
10:33 AM 3.2 °F -7.8 °F -9.4 °F 56% 30.00 in 7.0 mi NW 5.8 mph - N/A   Clear
10:53 AM 5.0 °F -8.1 °F -9.4 °F 52% 30.02 in 10.0 mi NW 8.1 mph 21.9 mph N/A   Clear
11:16 AM 5.0 °F -9.1 °F -11.2 °F 47% 30.02 in 10.0 mi NW 9.2 mph 19.6 mph N/A   Clear
11:33 AM 5.0 °F -8.1 °F -11.2 °F 47% 30.02 in 7.0 mi NNW 8.1 mph 17.3 mph N/A   Clear
11:53 AM 5.0 °F -5.6 °F -11.2 °F 47% 30.03 in 5.0 mi NW 5.8 mph 19.6 mph N/A   Haze
12:13 PM 3.2 °F -12.2 °F -11.2 °F 51% 30.04 in 3.0 mi NNW 10.4 mph 19.6 mph N/A   Haze
12:37 PM 3.2 °F -15.3 °F -14.8 °F 43% 30.05 in 4.0 mi WNW 15.0 mph 21.9 mph N/A   Haze
12:56 PM 3.2 °F -10.3 °F -13.0 °F 47% 30.06 in 4.0 mi NW 8.1 mph 17.3 mph N/A   Haze
1:16 PM 3.2 °F -10.3 °F -14.8 °F 43% 30.07 in 7.0 mi NNW 8.1 mph 17.3 mph N/A   Clear
1:35 PM 3.2 °F -13.9 °F -18.4 °F 36% 30.09 in 7.0 mi NNW 12.7 mph 21.9 mph N/A   Clear
1:53 PM 1.4 °F -13.5 °F -18.4 °F 39% 30.10 in 10.0 mi NW 9.2 mph 20.7 mph N/A   Clear
2:13 PM 1.4 °F -11.3 °F -20.2 °F 36% 30.12 in 10.0 mi NW 6.9 mph 23.0 mph N/A   Clear
2:34 PM -0.4 °F -18.4 °F -20.2 °F 39% 30.15 in 7.0 mi NW 12.7 mph 24.2 mph N/A   Clear
2:53 PM -0.4 °F -13.4 °F -20.2 °F 39% 30.17 in 10.0 mi North 6.9 mph 19.6 mph N/A   Clear
3:13 PM -2.2 °F -20.7 °F -20.2 °F 42% 30.20 in 10.0 mi NNW 12.7 mph 21.9 mph N/A   Clear
3:33 PM -2.2 °F -18.9 °F -20.2 °F 42% 30.22 in 10.0 mi NNW 10.4 mph 21.9 mph N/A   Scattered Clouds
3:53 PM -2.2 °F -21.5 °F -20.2 °F 42% 30.24 in 10.0 mi NNW 13.8 mph 21.9 mph N/A   Scattered Clouds
4:13 PM -4.0 °F -22.1 °F -20.2 °F 46% 30.26 in 10.0 mi NNW 11.5 mph 21.9 mph N/A   Clear
4:33 PM -5.8 °F -21.2 °F -20.2 °F 50% 30.28 in 10.0 mi NNW 8.1 mph 16.1 mph N/A   Clear
4:53 PM -7.6 °F -24.6 °F -20.2 °F 54% 30.29 in 10.0 mi NNW 9.2 mph - N/A   Clear
5:13 PM -7.6 °F -23.4 °F -20.2 °F 54% 30.32 in 10.0 mi NW 8.1 mph - N/A   Clear
5:33 PM -7.6 °F -20.6 °F -20.2 °F 54% 30.32 in 10.0 mi NNW 5.8 mph - N/A   Clear
5:54 PM -7.6 °F -20.6 °F -20.2 °F 54% 30.34 in 10.0 mi NW 5.8 mph - N/A   Clear
6:13 PM -9.4 °F -24.3 °F -20.2 °F 59% 30.36 in 10.0 mi NNW 6.9 mph - N/A   Clear
6:33 PM -9.4 °F -22.7 °F -20.2 °F 59% 30.37 in 10.0 mi NNW 5.8 mph - N/A   Clear
6:53 PM -9.4 °F -24.3 °F -20.2 °F 59% 30.39 in 10.0 mi NNW 6.9 mph - N/A   Clear
7:13 PM -9.4 °F -24.3 °F -20.2 °F 59% 30.41 in 10.0 mi NW 6.9 mph - N/A   Clear
7:33 PM -9.4 °F -25.6 °F -20.2 °F 59% 30.42 in 10.0 mi NW 8.1 mph - N/A   Clear
7:53 PM -11.2 °F -23.0 °F -22.0 °F 59% 30.42 in 10.0 mi NNW 4.6 mph - N/A   Clear
8:13 PM -11.2 °F -29.0 °F -22.0 °F 59% 30.44 in 10.0 mi NNW 9.2 mph - N/A   Clear
8:33 PM -11.2 °F -27.8 °F -22.0 °F 59% 30.45 in 10.0 mi NNW 8.1 mph - N/A   Clear
8:53 PM -11.2 °F -27.8 °F -23.8 °F 54% 30.45 in 10.0 mi North 8.1 mph - N/A   Clear
9:13 PM -11.2 °F -26.4 °F -23.8 °F 54% 30.45 in 10.0 mi North 6.9 mph - N/A   Clear
9:33 PM -13.0 °F -22.7 °F -23.8 °F 59% 30.45 in 10.0 mi North 3.5 mph - N/A   Clear
9:53 PM -13.0 °F -30.0 °F -23.8 °F 59% 30.46 in 10.0 mi North 8.1 mph - N/A   Clear
10:13 PM -13.0 °F -27.0 °F -23.8 °F 59% 30.47 in 10.0 mi NNW 5.8 mph - N/A   Clear
10:33 PM -14.8 °F -29.1 °F -23.8 °F 64% 30.49 in 10.0 mi North 5.8 mph - N/A   Clear
10:53 PM -14.8 °F -29.1 °F -25.6 °F 58% 30.49 in 10.0 mi NNW 5.8 mph - N/A   Clear
11:13 PM -14.8 °F -29.1 °F -25.6 °F 58% 30.50 in 10.0 mi North 5.8 mph - N/A   Clear
11:53 PM -14.8 °F -27.2 °F -25.6 °F 58% 30.52 in 10.0 mi NNW 4.6 mph - N/A   Clear